Location: Unspecified
(0.0000°N, 0.0000°E)
Time: 04:40:43
(UTC+00:00)

Vanguard 2 Rocket - Pass Details

Date: 13 December 2017
Orbit: 556 x 3326 km, 32.9° (Epoch: 19 January)

Event Time Altitude Azimuth Distance (km) Brightness Sun altitude
Rises 04:32:10 0° 297° (WNW) 7,029 - -18.8°
Reaches altitude 10° 04:37:27 10° 294° (WNW) 5,733 - -17.6°
Exits shadow 04:41:39 20° 290° (WNW) 4,669 9.8 -16.6°
Maximum altitude 04:53:12 57° 220° (SW) 2,268 8.8 -14.0°
Drops below altitude 10° 05:02:14 10° 142° (SE) 3,429 10.9 -11.9°
Sets 05:04:37 0° 137° (SE) 4,120 11.6 -11.4°
